Regional Weather Roundup
Issued by NWS

Home | Current Version | Previous Version | Text Only | Print | Product List | Glossary On
Versions: 1 2 3 4 5 6 7 8 9 10 11 12 13 14 15 16 17 18 19 20 21 22 23 24 25 26 27 28 29 30 31 32 33 34 35 36 37 38 39 40 41 42 43 44 45 46 47 48 49 50
000
ASUS43 KLSX 010059
RWRMO

WEATHER SUMMARY FOR MISSOURI
NATIONAL WEATHER SERVICE SPRINGFIELD MO
800 PM CDT SUN AUG 31 2014

NOTE: "FAIR" INDICATES FEW OR NO CLOUDS BELOW 12,000 FEET WITH NO
       SIGNIFICANT WEATHER AND/OR OBSTRUCTIONS TO VISIBILITY.
       CURRENT SKY AND/OR WEATHER CONDITIONS ARE NOT AVAILABLE FOR
       CHILLICOTHE AND FARMINGTON.

MOZ001>031-035>038-043-044-053-054-010200-
...NORTHERN AND WESTERN MISSOURI...

CITY           SKY/WX    TMP DP  RH WIND       PRES   REMARKS
KANSAS CTY INT CLOUDY    86  64  47 S16       29.71S
KANSAS C DTWN  MOCLDY    89  64  43 S16G22    29.71S HX  90
LEE`S SUMMIT   CLEAR     86  64  47 S8G17     29.76R
ST JOSEPH      CLOUDY    85  67  54 S13       29.68S
CHILLICOTHE      N/A     85  67  54 SE9       29.73F
KIRKSVILLE     CLEAR     77  68  73 SE12      29.77F

$$
MOZ066>068-077>081-088>096-101>105-010200-
...SOUTHWEST MISSOURI...

CITY           SKY/WX    TMP DP  RH WIND       PRES   REMARKS
SPRINGFIELD    CLEAR     83  66  56 S10       29.85F
JOPLIN         CLEAR     85  66  53 S13G23    29.81F

$$
MOZ032>034-039>042-045>050-055>058-069>072-010200-
...CENTRAL MISSOURI...

CITY           SKY/WX    TMP DP  RH WIND       PRES   REMARKS
COLUMBIA       CLEAR     82  62  50 SE8       29.83S
JEFFERSON CITY CLEAR     80  67  64 SE5       29.81F
ROLLA          CLEAR     80  68  66 SE8       29.86F
SEDALIA        CLEAR     85  66  53 SE13      29.79F
OSAGE BEACH    CLEAR     84  64  51 S5        29.83S

$$
MOZ051-052-059>065-010200-
...EAST CENTRAL MISSOURI...

CITY           SKY/WX    TMP DP  RH WIND       PRES   REMARKS
ST LOUIS INTL  PTCLDY    83  69  62 S13       29.88F
SPIRIT OF STL  CLEAR     81  67  62 SE6       29.85F
ST CHARLES     CLEAR     79  71  76 SE8       29.86F

$$
MOZ072>076-082>087-097>100-106>115-010200-
...SOUTH CENTRAL AND SOUTHEAST MISSOURI...

CITY           SKY/WX    TMP DP  RH WIND       PRES   REMARKS
CAPE GIRARDEAU CLEAR     79  72  79 S7        29.94S
FARMINGTON     PTCLDY    73  68  83 SE6       29.95S
POPLAR BLUFF   CLEAR     79  71  76 SE5       29.92S
WEST PLAINS    CLEAR     81  68  64 S9        29.94F

$$



USA.gov is the U.S. government's official web portal to all federal, state and local government web resources and services.